• In Netherlands
  • List of Countries
  • For 7 days
  • Water Temperature
  • Satellite Maps
  • Weather Map
  • Weather Widgets
  • user-avatar
    Login

    Hourly Weather Manama

    Today, 21 July, Friday

    Time Temperature Precipitation Wind Pressure Humidity
    00:00 +37°C° 0 mm 1 mps 747 mmHg 34%
    01:00 +37°C° 0 mm 1 mps 747 mmHg 34%
    02:00 +38°C° 0 mm 2 mps 747 mmHg 34%
    03:00 +37°C° 0 mm 3 mps 746 mmHg 45%
    04:00 +37°C° 0 mm 2 mps 747 mmHg 44%
    05:00 +36°C° 0 mm 1 mps 747 mmHg 44%
    06:00 +36°C° 0 mm 1 mps 747 mmHg 43%
    07:00 +37°C° 0 mm 1 mps 747 mmHg 39%
    08:00 +40°C° 0 mm 1 mps 748 mmHg 34%
    09:00 +41°C° 0 mm 1 mps 748 mmHg 30%
    10:00 +42°C° 0 mm 1 mps 748 mmHg 27%
    11:00 +43°C° 0 mm 1 mps 748 mmHg 25%
    12:00 +45°C° 0 mm 2 mps 748 mmHg 22%
    13:00 +46°C° 0 mm 2 mps 748 mmHg 20%
    14:00 +46°C° 0 mm 2 mps 747 mmHg 19%
    15:00 +46°C° 0 mm 2 mps 747 mmHg 17%
    16:00 +46°C° 0 mm 2 mps 747 mmHg 18%
    17:00 +45°C° 0 mm 2 mps 747 mmHg 18%
    18:00 +44°C° 0 mm 1 mps 747 mmHg 19%
    19:00 +42°C° 0 mm 1 mps 747 mmHg 19%
    20:00 +41°C° 0 mm 1 mps 747 mmHg 20%
    21:00 +40°C° 0 mm 1 mps 748 mmHg 21%
    22:00 +40°C° 0 mm 1 mps 747 mmHg 21%
    23:00 +39°C° 0 mm 1 mps 747 mmHg 21%

    Tomorrow, 22 July, Saturday

    Time Temperature Precipitation Wind Pressure Humidity
    00:00 +39°C° 0 mm 1 mps 747 mmHg 21%
    01:00 +39°C° 0 mm 1 mps 747 mmHg 22%
    02:00 +38°C° 0 mm 2 mps 747 mmHg 24%
    03:00 +38°C° 0 mm 2 mps 747 mmHg 26%
    04:00 +38°C° 0 mm 2 mps 747 mmHg 27%
    05:00 +37°C° 0 mm 1 mps 747 mmHg 28%
    06:00 +37°C° 0 mm 1 mps 748 mmHg 29%
    07:00 +40°C° 0 mm 2 mps 748 mmHg 24%
    08:00 +42°C° 0 mm 2 mps 748 mmHg 20%
    09:00 +45°C° 0 mm 3 mps 748 mmHg 16%
    10:00 +46°C° 0 mm 3 mps 748 mmHg 15%
    11:00 +47°C° 0 mm 3 mps 748 mmHg 14%
    12:00 +48°C° 0 mm 3 mps 748 mmHg 13%
    13:00 +48°C° 0 mm 3 mps 747 mmHg 14%
    14:00 +48°C° 0 mm 3 mps 747 mmHg 14%
    15:00 +48°C° 0 mm 3 mps 747 mmHg 15%
    16:00 +47°C° 0 mm 3 mps 746 mmHg 16%
    17:00 +46°C° 0 mm 2 mps 746 mmHg 18%
    18:00 +45°C° 0 mm 2 mps 746 mmHg 19%
    19:00 +43°C° 0 mm 2 mps 746 mmHg 20%
    20:00 +41°C° 0 mm 1 mps 747 mmHg 21%
    21:00 +40°C° 0 mm 1 mps 747 mmHg 22%
    22:00 +40°C° 0 mm 1 mps 747 mmHg 21%
    23:00 +40°C° 0 mm 2 mps 747 mmHg 20%

    Day after tomorrow, 23 July, Sunday

    Time Temperature Precipitation Wind Pressure Humidity
    00:00 +40°C° 0 mm 2 mps 747 mmHg 20%
    01:00 +39°C° 0 mm 2 mps 746 mmHg 21%
    02:00 +39°C° 0 mm 2 mps 746 mmHg 22%
    03:00 +38°C° 0 mm 2 mps 746 mmHg 23%
    04:00 +38°C° 0 mm 2 mps 746 mmHg 24%
    05:00 +38°C° 0 mm 2 mps 747 mmHg 25%
    06:00 +39°C° 0 mm 2 mps 747 mmHg 26%
    07:00 +40°C° 0 mm 2 mps 747 mmHg 23%
    08:00 +42°C° 0 mm 2 mps 747 mmHg 20%
    09:00 +43°C° 0 mm 2 mps 747 mmHg 17%
    10:00 +45°C° 0 mm 2 mps 747 mmHg 16%
    11:00 +46°C° 0 mm 1 mps 747 mmHg 14%
    12:00 +47°C° 0 mm 1 mps 747 mmHg 13%
    13:00 +48°C° 0 mm 2 mps 747 mmHg 13%
    14:00 +48°C° 0 mm 3 mps 746 mmHg 13%
    15:00 +49°C° 0 mm 4 mps 746 mmHg 13%
    16:00 +48°C° 0 mm 4 mps 746 mmHg 16%
    17:00 +46°C° 0 mm 5 mps 746 mmHg 20%
    18:00 +45°C° 0 mm 5 mps 746 mmHg 23%
    19:00 +43°C° 0 mm 5 mps 746 mmHg 26%
    20:00 +42°C° 0 mm 4 mps 747 mmHg 29%
    21:00 +41°C° 0 mm 4 mps 747 mmHg 32%
    22:00 +41°C° 0 mm 4 mps 747 mmHg 32%
    23:00 +41°C° 0 mm 4 mps 747 mmHg 33%

    24 July, Monday

    Time Temperature Precipitation Wind Pressure Humidity
    00:00 +39°C° 0 mm 3 mps 746 mmHg 34%
    01:00 +39°C° 0 mm 3 mps 746 mmHg 35%
    02:00 +38°C° 0 mm 3 mps 746 mmHg 35%
    03:00 +38°C° 0 mm 2 mps 746 mmHg 36%
    04:00 +38°C° 0 mm 2 mps 746 mmHg 36%
    05:00 +38°C° 0 mm 2 mps 746 mmHg 36%
    06:00 +38°C° 0 mm 2 mps 747 mmHg 36%
    07:00 +39°C° 0 mm 2 mps 747 mmHg 32%
    08:00 +41°C° 0 mm 2 mps 747 mmHg 28%
    09:00 +43°C° 0 mm 3 mps 748 mmHg 24%
    10:00 +43°C° 0 mm 2 mps 747 mmHg 22%
    11:00 +45°C° 0 mm 2 mps 747 mmHg 20%
    12:00 +47°C° 0 mm 2 mps 747 mmHg 18%
    13:00 +47°C° 0 mm 3 mps 746 mmHg 17%
    14:00 +47°C° 0 mm 3 mps 746 mmHg 17%
    15:00 +48°C° 0 mm 4 mps 745 mmHg 17%
    16:00 +47°C° 0 mm 4 mps 745 mmHg 20%
    17:00 +44°C° 0 mm 4 mps 745 mmHg 24%
    18:00 +43°C° 0 mm 5 mps 746 mmHg 27%
    19:00 +42°C° 0 mm 4 mps 746 mmHg 29%
    20:00 +42°C° 0 mm 4 mps 746 mmHg 31%
    21:00 +41°C° 0 mm 4 mps 746 mmHg 33%
    22:00 +41°C° 0 mm 4 mps 746 mmHg 34%
    23:00 +39°C° 0 mm 3 mps 746 mmHg 34%

    25 July, Tuesday

    Time Temperature Precipitation Wind Pressure Humidity
    00:00 +39°C° 0 mm 3 mps 746 mmHg 35%
    01:00 +38°C° 0 mm 3 mps 745 mmHg 36%
    02:00 +38°C° 0 mm 2 mps 745 mmHg 37%
    03:00 +37°C° 0 mm 2 mps 745 mmHg 38%
    04:00 +37°C° 0 mm 2 mps 745 mmHg 36%
    05:00 +38°C° 0 mm 2 mps 745 mmHg 34%
    06:00 +38°C° 0 mm 2 mps 746 mmHg 32%
    07:00 +39°C° 0 mm 2 mps 746 mmHg 28%
    08:00 +41°C° 0 mm 2 mps 746 mmHg 24%
    09:00 +43°C° 0 mm 2 mps 747 mmHg 20%
    10:00 +45°C° 0 mm 2 mps 746 mmHg 19%
    11:00 +46°C° 0 mm 2 mps 746 mmHg 18%
    12:00 +47°C° 0 mm 2 mps 746 mmHg 17%
    13:00 +47°C° 0 mm 2 mps 745 mmHg 16%
    14:00 +47°C° 0 mm 2 mps 745 mmHg 16%
    15:00 +48°C° 0 mm 2 mps 744 mmHg 16%
    16:00 +47°C° 0 mm 2 mps 744 mmHg 16%
    17:00 +46°C° 0 mm 2 mps 744 mmHg 16%
    18:00 +46°C° 0 mm 2 mps 744 mmHg 16%
    19:00 +45°C° 0 mm 2 mps 745 mmHg 17%
    20:00 +43°C° 0 mm 2 mps 745 mmHg 18%
    21:00 +42°C° 0 mm 2 mps 745 mmHg 19%
    22:00 +42°C° 0 mm 2 mps 745 mmHg 21%
    23:00 +41°C° 0 mm 2 mps 745 mmHg 23%

    26 July, Wednesday

    Time Temperature Precipitation Wind Pressure Humidity
    00:00 +41°C° 0 mm 2 mps 745 mmHg 25%
    01:00 +40°C° 0 mm 2 mps 744 mmHg 26%
    02:00 +39°C° 0 mm 3 mps 744 mmHg 27%
    03:00 +38°C° 0 mm 3 mps 744 mmHg 27%
    04:00 +39°C° 0 mm 3 mps 745 mmHg 27%
    05:00 +39°C° 0 mm 3 mps 745 mmHg 26%
    06:00 +39°C° 0 mm 3 mps 746 mmHg 26%
    07:00 +41°C° 0 mm 2 mps 746 mmHg 23%
    08:00 +42°C° 0 mm 2 mps 746 mmHg 20%
    09:00 +45°C° 0 mm 2 mps 747 mmHg 17%
    10:00 +46°C° 0 mm 2 mps 746 mmHg 16%
    11:00 +47°C° 0 mm 2 mps 746 mmHg 15%
    12:00 +47°C° 0 mm 2 mps 746 mmHg 14%
    13:00 +48°C° 0 mm 3 mps 746 mmHg 14%
    14:00 +48°C° 0 mm 3 mps 745 mmHg 14%
    15:00 +49°C° 0 mm 4 mps 745 mmHg 14%
    16:00 +48°C° 0 mm 4 mps 745 mmHg 18%
    17:00 +47°C° 0 mm 4 mps 745 mmHg 22%
    18:00 +45°C° 0 mm 5 mps 745 mmHg 25%
    19:00 +44°C° 0 mm 4 mps 746 mmHg 29%
    20:00 +43°C° 0 mm 4 mps 746 mmHg 32%
    21:00 +42°C° 0 mm 4 mps 746 mmHg 36%
    22:00 +41°C° 0 mm 4 mps 746 mmHg 36%
    23:00 +41°C° 0 mm 4 mps 746 mmHg 36%
    Show more